FENGYUN 1C DEB

Satellite information

Favourite Embed

Satellite Type and Status

DEBRISIN ORBIT

Key statistics

Satellite FENGYUN 1C DEB at a glance.

Uptime

9715

Days in orbit

Revolutions

≈ 13.9

Per day

Orbit

SSO

Sun Synchronous Orbit

Inclination

99.0

Latest

Satellite identification and parameters

Extended collection of information and parameters for FENGYUN 1C DEB.

Object identification

Identified? True

Debris? True

Object name: FENGYUN 1C DEB

International designator: 1999-025BWY

Object number (NORAD): 31509

Object ID (CCSDS): 31509

Country: PEOPLES REPUBLIC OF CHINA (PRC)

Current information (Y/N): Y

RCS size: SMALL

Orbital parameters

Period: 103.235 minutes

Inclination: 99.0222 deg

SMA: 7289.708 km

Apoapsis: 1060.582 km

Periapsis: 762.563 km

RAAN: 105.0735 deg

Eccentricy: 0.0204411

Argument of periapsis: 220.9984 deg

Mean anomaly: 137.5657 deg

Mean motion: 13.94882364 rev/day

Mean motion (dot): 0.00005291 rev/day2

B* drag term: 0.0033353 1/REarth

Two-line elements (TLE)

Creation date: Dec. 12, 2025, 7:26 a.m.

Reference frame: TEME

Reference center: EARTH

Epoch: Dec. 11, 2025, 7:18 p.m. UTC

TLE line 0: 0 FENGYUN 1C DEB

TLE line 1: 1 31509U 99025BWY 25345.80471588 .00005291 00000-0 33353-2 0 9999

TLE line 2: 2 31509 99.0222 105.0735 0204411 220.9984 137.5657 13.94882364939497

Live tracking on map

Real-time ground track for satellite FENGYUN 1C DEB.

In-orbit conjunctions

A list of the most updated potential collisions computed for object FENGYUN 1C DEB.

Target Orbit TCA Probability of collision Miss distance Type
COSMOS 1655 LEO 2025-03-28 17:23:25 0.0001105217 231.0 (m) PAYLOAD
FENGYUN 1C DEB SSO 2024-09-26 19:06:16 0.0001621924 579.0 (m) DEBRIS
COSMOS 836 LEO 2024-08-04 18:16:06 0.01033951 29.0 (m) PAYLOAD

Associated space launch

Chinese polar orbiting meteorological satellite

FENGYUN 1C DEB was lifted into orbit during the mission ‘Long March 4B | Feng Yun 1C’, on board a Long March 4B space rocket.

The launch took place on May 10, 1999, 1:33 a.m. from Launch Complex 7.

For more information about the launch, click the button.

Launch to space Long March 4B | Feng Yun 1C
Long March 4B | Feng Yun 1C

Agency: N/A

Status: Launch Successful

Launch date: May 10, 1999, 1:33 a.m. UTC

Rocket: Long March 4B

Launch pad: Launch Complex 7

Location: Taiyuan Satellite Launch Center, People's Republic of China

...

Latest news about this satellite

There are no fresh news available about this satellite. Check back as we update our databases every day.


Newsletter sign-up

Weekly statistics, charts and insights to help you stay on top of the space industry.